Regional Weather Roundup
Issued by NWS

Home | Current Version | Previous Version | Text Only | Print | Product List | Glossary Off
Versions: 1 2 3 4 5 6 7 8 9 10 11 12 13 14 15 16 17 18 19 20 21 22 23 24 25 26 27 28 29 30 31 32 33 34 35 36 37 38 39 40 41 42 43 44 45 46 47 48 49 50

000
ASUS43 KLMK 050402
RWRKY
KENTUCKY REGIONAL WEATHER ROUNDUP
NATIONAL WEATHER SERVICE LOUISVILLE KY
1200 AM EDT WED AUG 05 2015

NOTE "FAIR" INDICATES FEW OR NO CLOUDS BELOW 12,000 FEET
WITH NO SIGNIFICANT WEATHER AND/OR OBSTRUCTIONS TO VISIBILITY.

KYZ001>023-026-027-061>063-070>075-050500-
WESTERN AND SOUTH CENTRAL KENTUCKY

CITY           SKY/WX    TMP DP  RH WIND       PRES   REMARKS
PADUCAH        CLOUDY    76  70  82 E3        29.99R
HENDERSON      MOCLDY    70  66  88 E3        30.00R
OWENSBORO      CLOUDY    71  69  93 S5        30.02R
HOPKINSVILLE   CLOUDY    76  66  70 SE5       30.02S
BOWLING GREEN  CLOUDY    77  67  71 S3        30.03F
GLASGOW        CLOUDY    71  70  98 N5        30.04R
$$

KYZ024-025-028>034-038-045-046-053-050500-
NORTH CENTRAL KENTUCKY

CITY           SKY/WX    TMP DP  RH WIND       PRES   REMARKS
LOUISVILLE/SDF MOCLDY    71  67  87 S5        30.02S
LOUISVILLE/LOU MOCLDY    70  68  93 S5        30.02F
FORT KNOX      MOCLDY    69  67  94 S3        30.02S
$$

KYZ035>037-039>044-047>052-055>060-089>105-050500-
NORTHEAST KENTUCKY

CITY           SKY/WX    TMP DP  RH WIND       PRES   REMARKS
LEXINGTON      CLOUDY    69  66  90 CALM      30.03F
COVINGTON      CLOUDY    71  61  70 CALM      30.02F
FRANKFORT      CLOUDY    69  66  90 CALM      30.02F
$$

KYZ054-064>069-076>088-106>120-050500-
SOUTHEAST KENTUCKY

CITY           SKY/WX    TMP DP  RH WIND       PRES   REMARKS
JACKSON        CLOUDY    69  67  93 CALM      30.10F FOG
LONDON         CLOUDY    70  65  84 SE3       30.10F
SOMERSET       CLOUDY    68  68 100 CALM      30.07F
MIDDLESBORO    MOCLDY    72  68  87 CALM      30.12R
MONTICELLO     MOCLDY    72  69  90 S5        30.09F
$$




USA.gov is the U.S. government's official web portal to all federal, state and local government web resources and services.